Time,TemperatureF,DewpointF,PressureIn,WindDirection,WindDirectionDegrees,WindSpeedMPH,WindSpeedGustMPH,Humidity,HourlyPrecipIn,Conditions,Clouds,dailyrainin,SolarRadiationWatts/m^2,SoftwareType,DateUTC
2013-05-17 00:02:00,61.6,44.8,29.72,NE,36,2.0,6.0,54,0.00,CLR,SCT,0.00,0.0,WeatherDisplay:10.37,2013-05-17 04:02:00,
2013-05-17 00:06:00,61.5,44.7,29.73,NNE,25,1.0,6.0,54,0.00,CLR,SCT,0.00,0.0,WeatherDisplay:10.37,2013-05-17 04:06:00,
2013-05-17 00:11:00,61.3,44.5,29.73,North,9,1.0,6.0,54,0.00,CLR,SCT,0.00,0.0,WeatherDisplay:10.37,2013-05-17 04:11:00,
2013-05-17 00:16:00,60.6,44.3,29.73,NE,43,2.0,6.0,55,0.00,CLR,SCT,0.00,0.0,WeatherDisplay:10.37,2013-05-17 04:16:00,
2013-05-17 00:26:00,60.2,44.4,29.74,ENE,57,1.0,6.0,56,0.00,CLR,SCT,0.00,0.0,WeatherDisplay:10.37,2013-05-17 04:26:00,
2013-05-17 00:31:00,59.9,44.2,29.74,NE,55,1.0,5.0,56,0.00,CLR,SCT,0.00,0.0,WeatherDisplay:10.37,2013-05-17 04:31:00,
2013-05-17 00:41:00,59.4,44.1,29.74,NE,47,1.0,5.0,57,0.00,CLR,SCT,0.00,0.0,WeatherDisplay:10.37,2013-05-17 04:41:00,
2013-05-17 00:46:00,59.2,44.4,29.74,ENE,58,5.0,10.0,58,0.00,CLR,SCT,0.00,0.0,WeatherDisplay:10.37,2013-05-17 04:46:00,
2013-05-17 00:56:00,59.0,44.2,29.75,NNW,331,2.0,6.0,58,0.00,CLR,SCT,0.00,0.0,WeatherDisplay:10.37,2013-05-17 04:56:00,
2013-05-17 01:02:00,58.8,43.6,29.75,NNE,22,1.0,6.0,57,0.00,CLR,SCT,0.00,0.0,WeatherDisplay:10.37,2013-05-17 05:02:00,
2013-05-17 01:11:00,58.6,43.8,29.75,ENE,70,1.0,6.0,58,0.00,CLR,SCT,0.00,0.0,WeatherDisplay:10.37,2013-05-17 05:11:00,
2013-05-17 01:16:00,58.3,43.6,29.75,WNW,297,1.0,6.0,58,0.00,CLR,SCT,0.00,0.0,WeatherDisplay:10.37,2013-05-17 05:16:00,
2013-05-17 01:26:00,57.9,43.7,29.75,North,358,1.0,5.0,59,0.00,CLR,SCT,0.00,0.0,WeatherDisplay:10.37,2013-05-17 05:26:00,
2013-05-17 01:31:00,57.9,43.7,29.75,NNW,328,3.0,8.0,59,0.00,CLR,SCT,0.00,0.0,WeatherDisplay:10.37,2013-05-17 05:31:00,
2013-05-17 01:41:00,57.7,43.5,29.76,North,351,1.0,3.0,59,0.00,CLR,SCT,0.00,0.0,WeatherDisplay:10.37,2013-05-17 05:41:00,
2013-05-17 01:46:00,57.4,43.6,29.75,NNW,347,1.0,4.0,60,0.00,CLR,SCT,0.00,0.0,WeatherDisplay:10.37,2013-05-17 05:46:00,
2013-05-17 01:56:00,56.8,43.1,29.76,NNW,347,0.0,6.0,60,0.00,CLR,SCT,0.00,0.0,WeatherDisplay:10.37,2013-05-17 05:56:00,
2013-05-17 02:02:00,56.7,42.9,29.76,North,2,0.0,2.0,60,0.00,CLR,SCT,0.00,0.0,WeatherDisplay:10.37,2013-05-17 06:02:00,
2013-05-17 02:11:00,56.5,43.2,29.75,NE,39,0.0,2.0,61,0.00,CLR,SCT,0.00,0.0,WeatherDisplay:10.37,2013-05-17 06:11:00,
2013-05-17 02:16:00,56.2,43.3,29.76,NNE,26,0.0,2.0,62,0.00,CLR,SCT,0.00,0.0,WeatherDisplay:10.37,2013-05-17 06:16:00,
2013-05-17 02:22:00,56.1,43.3,29.75,NNW,345,0.0,4.0,62,0.00,CLR,SCT,0.00,0.0,WeatherDisplay:10.37,2013-05-17 06:22:00,
2013-05-17 02:31:00,55.8,42.9,29.76,NW,314,0.0,5.0,62,0.00,CLR,SCT,0.00,0.0,WeatherDisplay:10.37,2013-05-17 06:31:00,
2013-05-17 02:41:00,55.4,43.0,29.76,NW,320,0.0,3.0,63,0.00,CLR,SCT,0.00,0.0,WeatherDisplay:10.37,2013-05-17 06:41:00,
2013-05-17 02:46:00,55.2,43.2,29.76,NNW,343,0.0,2.0,64,0.00,CLR,SCT,0.00,0.0,WeatherDisplay:10.37,2013-05-17 06:46:00,
2013-05-17 02:51:00,55.0,43.5,29.77,WNW,294,0.0,2.0,65,0.00,CLR,SCT,0.00,0.0,WeatherDisplay:10.37,2013-05-17 06:51:00,
2013-05-17 03:02:00,54.7,43.2,29.77,NW,304,0.0,2.0,65,0.00,CLR,SCT,0.00,0.0,WeatherDisplay:10.37,2013-05-17 07:02:00,
2013-05-17 03:11:00,54.5,43.0,29.77,SE,135,0.0,2.0,65,0.00,CLR,SCT,0.00,0.0,WeatherDisplay:10.37,2013-05-17 07:11:00,
2013-05-17 03:16:00,54.0,42.9,29.77,NW,315,0.0,2.0,66,0.00,CLR,SCT,0.00,0.0,WeatherDisplay:10.37,2013-05-17 07:16:00,
2013-05-17 03:26:00,53.5,43.2,29.77,NE,41,0.0,1.0,68,0.00,CLR,SCT,0.00,0.0,WeatherDisplay:10.37,2013-05-17 07:26:00,
2013-05-17 03:31:00,53.2,42.9,29.77,East,87,0.0,1.0,68,0.00,CLR,SCT,0.00,0.0,WeatherDisplay:10.37,2013-05-17 07:31:00,
2013-05-17 03:41:00,52.9,43.0,29.77,NNW,328,0.0,3.0,69,0.00,CLR,SCT,0.00,0.0,WeatherDisplay:10.37,2013-05-17 07:41:00,
2013-05-17 03:46:00,52.5,43.0,29.78,NW,315,0.0,1.0,70,0.00,CLR,SCT,0.00,0.0,WeatherDisplay:10.37,2013-05-17 07:46:00,
2013-05-17 03:56:00,52.0,42.9,29.78,NE,52,0.0,2.0,71,0.00,CLR,SCT,0.00,0.0,WeatherDisplay:10.37,2013-05-17 07:56:00,
2013-05-17 04:01:00,51.8,43.4,29.78,SE,146,1.0,4.0,73,0.00,CLR,SCT,0.00,0.0,WeatherDisplay:10.37,2013-05-17 08:01:00,
2013-05-17 04:11:00,52.4,43.3,29.79,NE,37,1.0,5.0,71,0.00,CLR,SCT,0.00,0.0,WeatherDisplay:10.37,2013-05-17 08:11:00,
2013-05-17 04:16:00,52.9,43.4,29.79,NE,41,1.0,5.0,70,0.00,CLR,SCT,0.00,0.0,WeatherDisplay:10.37,2013-05-17 08:16:00,
2013-05-17 04:21:00,53.1,43.2,29.80,North,10,2.0,6.0,69,0.00,CLR,SCT,0.00,0.0,WeatherDisplay:10.37,2013-05-17 08:21:00,
2013-05-17 04:31:00,53.1,42.8,29.79,NNW,343,2.0,8.0,68,0.00,CLR,SCT,0.00,0.0,WeatherDisplay:10.37,2013-05-17 08:31:00,
2013-05-17 04:41:00,53.1,42.8,29.80,NNW,342,0.0,5.0,68,0.00,CLR,SCT,0.00,0.0,WeatherDisplay:10.37,2013-05-17 08:41:00,
2013-05-17 05:04:00,52.3,42.5,29.81,NNW,337,0.0,6.0,69,0.00,CLR,SCT,0.00,0.0,WeatherDisplay:10.37,2013-05-17 09:04:00,
2013-05-17 05:11:00,52.1,42.3,29.81,NNW,339,0.0,4.0,69,0.00,CLR,SCT,0.00,0.0,WeatherDisplay:10.37,2013-05-17 09:11:00,
2013-05-17 05:21:00,52.1,42.6,29.81,NW,311,3.0,8.0,70,0.00,CLR,SCT,0.00,0.0,WeatherDisplay:10.37,2013-05-17 09:21:00,
2013-05-17 05:31:00,52.3,42.8,29.82,WNW,303,1.0,8.0,70,0.00,CLR,SCT,0.00,0.0,WeatherDisplay:10.37,2013-05-17 09:31:00,
2013-05-17 05:41:00,52.2,42.7,29.83,North,358,1.0,5.0,70,0.00,CLR,SCT,0.00,0.0,WeatherDisplay:10.37,2013-05-17 09:41:00,
2013-05-17 05:46:00,52.2,42.7,29.82,NW,312,1.0,3.0,70,0.00,CLR,SCT,0.00,0.0,WeatherDisplay:10.37,2013-05-17 09:46:00,
2013-05-17 05:56:00,52.1,42.6,29.83,North,358,3.0,6.0,70,0.00,CLR,SCT,0.00,0.0,WeatherDisplay:10.37,2013-05-17 09:56:00,
2013-05-17 06:02:00,52.2,42.7,29.84,NNE,12,3.0,7.0,70,0.00,CLR,SCT,0.00,0.0,WeatherDisplay:10.37,2013-05-17 10:02:00,
2013-05-17 06:11:00,52.3,42.8,29.84,ENE,76,3.0,9.0,70,0.00,CLR,SCT,0.00,0.0,WeatherDisplay:10.37,2013-05-17 10:11:00,
2013-05-17 06:16:00,52.5,42.6,29.85,NE,44,1.0,9.0,69,0.00,CLR,SCT,0.00,0.0,WeatherDisplay:10.37,2013-05-17 10:16:00,
2013-05-17 06:26:00,52.5,42.6,29.85,NW,318,1.0,8.0,69,0.00,CLR,SCT,0.00,0.0,WeatherDisplay:10.37,2013-05-17 10:26:00,
2013-05-17 06:31:00,52.7,42.8,29.86,NNW,333,2.0,8.0,69,0.00,CLR,SCT,0.00,0.0,WeatherDisplay:10.37,2013-05-17 10:31:00,
2013-05-17 06:41:00,52.8,42.9,29.87,North,352,2.0,13.0,69,0.00,CLR,SCT,0.00,0.0,WeatherDisplay:10.37,2013-05-17 10:41:00,
2013-05-17 06:51:00,52.9,42.6,29.87,NNE,23,2.0,9.0,68,0.00,CLR,SCT,0.00,0.0,WeatherDisplay:10.37,2013-05-17 10:51:00,
2013-05-17 06:56:00,53.0,42.7,29.87,NNE,18,2.0,6.0,68,0.00,CLR,SCT,0.00,0.0,WeatherDisplay:10.37,2013-05-17 10:56:00,
2013-05-17 07:02:00,53.1,42.4,29.88,North,350,1.0,11.0,67,0.00,CLR,SCT,0.00,0.0,WeatherDisplay:10.37,2013-05-17 11:02:00,
2013-05-17 07:11:00,53.2,42.6,29.89,NE,36,6.0,11.0,67,0.00,CLR,SCT,0.00,0.0,WeatherDisplay:10.37,2013-05-17 11:11:00,
2013-05-17 07:16:00,53.2,42.2,29.89,NNE,28,5.0,13.0,66,0.00,CLR,SCT,0.00,0.0,WeatherDisplay:10.37,2013-05-17 11:16:00,
2013-05-17 07:26:00,53.6,42.5,29.88,North,354,5.0,12.0,66,0.00,CLR,SCT,0.00,0.0,WeatherDisplay:10.37,2013-05-17 11:26:00,
2013-05-17 07:31:00,53.6,42.1,29.88,North,351,2.0,12.0,65,0.00,CLR,SCT,0.00,0.0,WeatherDisplay:10.37,2013-05-17 11:31:00,
2013-05-17 07:41:00,54.0,41.6,29.89,North,4,6.0,11.0,63,0.00,CLR,SCT,0.00,0.0,WeatherDisplay:10.37,2013-05-17 11:41:00,
2013-05-17 07:46:00,54.1,41.7,29.90,NNW,341,5.0,12.0,63,0.00,CLR,SCT,0.00,0.0,WeatherDisplay:10.37,2013-05-17 11:46:00,
2013-05-17 07:51:00,54.4,42.5,29.90,North,9,2.0,12.0,64,0.00,CLR,SCT,0.00,0.0,WeatherDisplay:10.37,2013-05-17 11:51:00,
2013-05-17 07:56:00,54.7,42.3,29.90,SE,126,2.0,9.0,63,0.00,CLR,SCT,0.00,0.0,WeatherDisplay:10.37,2013-05-17 11:56:00,
2013-05-17 08:02:00,54.9,42.1,29.90,NW,312,5.0,9.0,62,0.00,CLR,SCT,0.00,0.0,WeatherDisplay:10.37,2013-05-17 12:02:00,
2013-05-17 08:11:00,55.4,42.1,29.90,NNW,328,2.0,7.0,61,0.00,CLR,SCT,0.00,0.0,WeatherDisplay:10.37,2013-05-17 12:11:00,
2013-05-17 08:16:00,55.4,42.2,29.90,North,360,5.0,8.0,61,0.00,CLR,SCT,0.00,0.0,WeatherDisplay:10.37,2013-05-17 12:16:00,
2013-05-17 08:26:00,55.6,42.0,29.90,ENE,57,3.0,10.0,60,0.00,CLR,SCT,0.00,0.0,WeatherDisplay:10.37,2013-05-17 12:26:00,
2013-05-17 08:31:00,55.9,42.2,29.90,ENE,70,5.0,10.0,60,0.00,CLR,SCT,0.00,0.0,WeatherDisplay:10.37,2013-05-17 12:31:00,
2013-05-17 08:51:00,56.8,42.2,29.91,NE,48,6.0,17.0,58,0.00,CLR,SCT,0.00,0.0,WeatherDisplay:10.37,2013-05-17 12:51:00,
2013-05-17 09:02:00,57.4,42.3,29.91,ENE,62,6.0,17.0,57,0.00,CLR,SCT,0.00,0.0,WeatherDisplay:10.37,2013-05-17 13:02:00,
2013-05-17 09:11:00,57.6,42.4,29.91,NNE,24,6.0,15.0,57,0.00,CLR,SCT,0.00,0.0,WeatherDisplay:10.37,2013-05-17 13:11:00,
2013-05-17 09:16:00,58.0,42.8,29.91,NNE,26,6.0,10.0,57,0.00,CLR,SCT,0.00,0.0,WeatherDisplay:10.37,2013-05-17 13:16:00,
2013-05-17 09:26:00,59.0,42.8,29.91,NNE,26,7.0,15.0,55,0.00,CLR,SCT,0.00,0.0,WeatherDisplay:10.37,2013-05-17 13:26:00,
2013-05-17 09:31:00,59.0,43.3,29.91,NNE,21,6.0,15.0,56,0.00,CLR,SCT,0.00,0.0,WeatherDisplay:10.37,2013-05-17 13:31:00,
2013-05-17 09:41:00,59.4,43.7,29.91,NNW,345,5.0,10.0,56,0.00,CLR,SCT,0.00,0.0,WeatherDisplay:10.37,2013-05-17 13:41:00,
2013-05-17 09:46:00,59.5,42.9,29.91,NNW,330,8.0,15.0,54,0.00,CLR,SCT,0.00,0.0,WeatherDisplay:10.37,2013-05-17 13:46:00,
2013-05-17 09:56:00,60.0,43.8,29.91,NNW,335,5.0,12.0,55,0.00,CLR,SCT,0.00,0.0,WeatherDisplay:10.37,2013-05-17 13:56:00,
2013-05-17 10:02:00,60.2,43.5,29.91,NW,310,5.0,12.0,54,0.00,CLR,SCT,0.00,0.0,WeatherDisplay:10.37,2013-05-17 14:02:00,
2013-05-17 10:11:00,60.3,43.5,29.91,North,5,2.0,12.0,54,0.00,CLR,SCT,0.00,0.0,WeatherDisplay:10.37,2013-05-17 14:11:00,
2013-05-17 10:16:00,60.3,42.6,29.92,NE,49,6.0,13.0,52,0.00,CLR,SCT,0.00,0.0,WeatherDisplay:10.37,2013-05-17 14:16:00,
2013-05-17 10:26:00,60.7,43.5,29.92,NNE,18,6.0,10.0,53,0.00,CLR,SCT,0.00,0.0,WeatherDisplay:10.37,2013-05-17 14:26:00,
2013-05-17 10:31:00,60.8,43.6,29.92,NNE,16,5.0,11.0,53,0.00,CLR,SCT,0.00,0.0,WeatherDisplay:10.37,2013-05-17 14:31:00,
2013-05-17 10:41:00,61.0,43.7,29.92,North,10,3.0,10.0,53,0.00,CLR,SCT,0.00,0.0,WeatherDisplay:10.37,2013-05-17 14:41:00,
2013-05-17 10:46:00,61.7,44.4,29.92,North,1,3.0,10.0,53,0.00,CLR,SCT,0.00,0.0,WeatherDisplay:10.37,2013-05-17 14:46:00,
2013-05-17 10:51:00,62.1,44.2,29.93,NNE,28,6.0,13.0,52,0.00,CLR,SCT,0.00,0.0,WeatherDisplay:10.37,2013-05-17 14:51:00,
2013-05-17 11:02:00,62.8,44.4,29.93,NE,38,7.0,15.0,51,0.00,CLR,SCT,0.00,0.0,WeatherDisplay:10.37,2013-05-17 15:02:00,
2013-05-17 11:11:00,62.6,44.2,29.93,NNE,31,8.0,15.0,51,0.00,BKN,SCT,0.00,0.0,WeatherDisplay:10.37,2013-05-17 15:11:00,
2013-05-17 11:16:00,62.8,44.4,29.94,NE,34,6.0,15.0,51,0.00,BKN,SCT,0.00,0.0,WeatherDisplay:10.37,2013-05-17 15:16:00,
2013-05-17 11:26:00,63.9,44.3,29.94,NNW,345,3.0,13.0,49,0.00,BKN,SCT,0.00,0.0,WeatherDisplay:10.37,2013-05-17 15:26:00,
2013-05-17 11:31:00,63.9,44.9,29.94,NNW,341,2.0,13.0,50,0.00,BKN,SCT,0.00,0.0,WeatherDisplay:10.37,2013-05-17 15:31:00,
2013-05-17 11:41:00,63.5,44.5,29.94,ENE,75,6.0,10.0,50,0.00,BKN,SCT,0.00,0.0,WeatherDisplay:10.37,2013-05-17 15:41:00,
2013-05-17 11:46:00,64.4,44.8,29.94,East,84,5.0,12.0,49,0.00,BKN,SCT,0.00,0.0,WeatherDisplay:10.37,2013-05-17 15:46:00,
2013-05-17 11:56:00,63.9,44.3,29.94,North,5,3.0,8.0,49,0.00,BKN,SCT,0.00,0.0,WeatherDisplay:10.37,2013-05-17 15:56:00,
2013-05-17 12:02:00,64.2,44.6,29.95,North,2,3.0,8.0,49,0.00,BKN,SCT,0.00,0.0,WeatherDisplay:10.37,2013-05-17 16:02:00,
2013-05-17 12:11:00,65.8,44.5,29.95,West,280,6.0,12.0,46,0.00,BKN,SCT,0.00,0.0,WeatherDisplay:10.37,2013-05-17 16:11:00,
2013-05-17 12:21:00,64.7,43.4,29.95,North,1,6.0,13.0,46,0.00,BKN,SCT,0.00,0.0,WeatherDisplay:10.37,2013-05-17 16:21:00,
2013-05-17 12:32:00,66.0,45.2,29.95,NNE,22,5.0,10.0,47,0.00,BKN,SCT,0.00,0.0,WeatherDisplay:10.37,2013-05-17 16:32:00,
2013-05-17 12:41:00,66.6,44.0,29.95,NNE,19,5.0,8.0,44,0.00,BKN,SCT,0.00,0.0,WeatherDisplay:10.37,2013-05-17 16:41:00,
2013-05-17 12:46:00,65.1,43.8,29.95,NNE,25,3.0,10.0,46,0.00,BKN,SCT,0.00,0.0,WeatherDisplay:10.37,2013-05-17 16:46:00,
2013-05-17 12:51:00,65.7,45.4,29.95,NNE,13,1.0,10.0,48,0.00,BKN,SCT,0.00,0.0,WeatherDisplay:10.37,2013-05-17 16:51:00,
2013-05-17 13:02:00,66.9,44.3,29.95,NNE,23,3.0,10.0,44,0.00,BKN,SCT,0.00,0.0,WeatherDisplay:10.37,2013-05-17 17:02:00,
2013-05-17 13:11:00,66.9,44.9,29.95,North,5,3.0,6.0,45,0.00,BKN,SCT,0.00,0.0,WeatherDisplay:10.37,2013-05-17 17:11:00,
2013-05-17 13:16:00,66.6,44.0,29.95,North,357,2.0,14.0,44,0.00,BKN,SCT,0.00,0.0,WeatherDisplay:10.37,2013-05-17 17:16:00,
2013-05-17 13:26:00,66.6,44.6,29.95,North,352,5.0,12.0,45,0.00,BKN,SCT,0.00,0.0,WeatherDisplay:10.37,2013-05-17 17:26:00,
2013-05-17 13:36:00,68.1,45.9,29.95,North,351,3.0,8.0,45,0.00,BKN,SCT,0.00,0.0,WeatherDisplay:10.37,2013-05-17 17:36:00,
2013-05-17 13:41:00,69.0,46.2,29.95,North,354,3.0,13.0,44,0.00,BKN,SCT,0.00,0.0,WeatherDisplay:10.37,2013-05-17 17:41:00,
2013-05-17 13:56:00,68.7,44.1,29.95,North,7,6.0,13.0,41,0.00,BKN,SCT,0.00,0.0,WeatherDisplay:10.37,2013-05-17 17:56:00,
2013-05-17 14:02:00,68.9,44.2,29.95,NNE,24,2.0,12.0,41,0.00,BKN,SCT,0.00,0.0,WeatherDisplay:10.37,2013-05-17 18:02:00,
2013-05-17 14:11:00,69.6,45.5,29.95,NNE,13,5.0,12.0,42,0.00,SCT,SCT,0.00,0.0,WeatherDisplay:10.37,2013-05-17 18:11:00,
2013-05-17 14:21:00,70.3,44.8,29.95,NNW,339,3.0,13.0,40,0.00,SCT,SCT,0.00,0.0,WeatherDisplay:10.37,2013-05-17 18:21:00,
2013-05-17 14:26:00,70.6,45.1,29.95,North,2,2.0,10.0,40,0.00,SCT,SCT,0.00,0.0,WeatherDisplay:10.37,2013-05-17 18:26:00,
2013-05-17 14:31:00,70.5,45.0,29.95,North,4,2.0,6.0,40,0.00,SCT,SCT,0.00,0.0,WeatherDisplay:10.37,2013-05-17 18:31:00,
2013-05-17 14:41:00,69.6,44.8,29.95,NNW,338,2.0,9.0,41,0.00,SCT,SCT,0.00,0.0,WeatherDisplay:10.37,2013-05-17 18:41:00,
2013-05-17 14:46:00,69.4,44.0,29.95,NNW,336,3.0,9.0,40,0.00,SCT,SCT,0.00,0.0,WeatherDisplay:10.37,2013-05-17 18:46:00,
2013-05-17 14:51:00,69.9,43.8,29.95,North,354,3.0,12.0,39,0.00,SCT,SCT,0.00,0.0,WeatherDisplay:10.37,2013-05-17 18:51:00,
2013-05-17 14:55:00,72.9,42.8,29.95,NNW,335,1.0,2.0,34,0.00,OVC,SCT,0.00,0.0,WeatherDisplay:10.37,2013-05-17 18:55:00,
2013-05-17 14:56:00,69.9,44.5,29.95,NNE,21,3.0,12.0,40,0.00,SCT,SCT,0.00,0.0,WeatherDisplay:10.37,2013-05-17 18:56:00,
2013-05-17 15:00:00,73.8,43.6,29.96,NNW,334,6.0,14.0,34,0.00,OVC,SCT,0.00,0.0,WeatherDisplay:10.37,2013-05-17 19:00:00,
2013-05-17 15:02:00,70.5,45.6,29.95,NNE,17,2.0,10.0,41,0.00,SCT,SCT,0.00,0.0,WeatherDisplay:10.37,2013-05-17 19:02:00,
2013-05-17 15:05:00,73.2,42.4,29.96,North,357,5.0,14.0,33,0.00,OVC,SCT,0.00,0.0,WeatherDisplay:10.37,2013-05-17 19:05:00,
2013-05-17 15:11:00,72.3,43.9,29.95,NNW,344,3.0,10.0,36,0.00,SCT,SCT,0.00,0.0,WeatherDisplay:10.37,2013-05-17 19:11:00,
2013-05-17 15:16:00,72.3,44.6,29.96,North,349,3.0,9.0,37,0.00,SCT,SCT,0.00,0.0,WeatherDisplay:10.37,2013-05-17 19:16:00,
2013-05-17 15:26:00,71.7,44.0,29.96,North,0,3.0,10.0,37,0.00,SCT,SCT,0.00,0.0,WeatherDisplay:10.37,2013-05-17 19:26:00,
2013-05-17 15:32:00,72.2,44.4,29.95,North,0,2.0,10.0,37,0.00,SCT,SCT,0.00,0.0,WeatherDisplay:10.37,2013-05-17 19:32:00,
2013-05-17 15:41:00,73.4,43.3,29.95,North,351,6.0,9.0,34,0.00,SCT,SCT,0.00,0.0,WeatherDisplay:10.37,2013-05-17 19:41:00,
2013-05-17 15:46:00,72.7,43.5,29.95,North,351,3.0,9.0,35,0.00,SCT,SCT,0.00,0.0,WeatherDisplay:10.37,2013-05-17 19:46:00,
2013-05-17 15:55:00,72.7,42.7,29.95,NNW,338,3.0,10.0,34,0.00,SCT,SCT,0.00,0.0,WeatherDisplay:10.37,2013-05-17 19:55:00,
2013-05-17 16:15:00,73.5,41.8,29.96,North,8,3.0,9.0,32,0.00,SCT,SCT,0.00,0.0,WeatherDisplay:10.37,2013-05-17 20:15:00,
2013-05-17 16:25:00,72.1,41.4,29.97,ENE,57,1.0,15.0,33,0.00,SCT,SCT,0.00,0.0,WeatherDisplay:10.37,2013-05-17 20:25:00,
2013-05-17 16:30:00,71.9,41.2,29.96,NW,317,2.0,5.0,33,0.00,SCT,SCT,0.00,0.0,WeatherDisplay:10.37,2013-05-17 20:30:00,
2013-05-17 16:40:00,71.4,42.3,29.97,NNE,19,1.0,6.0,35,0.00,SCT,SCT,0.00,0.0,WeatherDisplay:10.37,2013-05-17 20:40:00,
2013-05-17 16:45:00,71.3,42.2,29.97,North,5,2.0,5.0,35,0.00,SCT,SCT,0.00,0.0,WeatherDisplay:10.37,2013-05-17 20:45:00,
2013-05-17 16:55:00,71.1,42.0,29.97,North,358,2.0,9.0,35,0.00,SCT,SCT,0.00,0.0,WeatherDisplay:10.37,2013-05-17 20:55:00,
2013-05-17 17:00:00,71.7,42.6,29.98,NE,39,1.0,8.0,35,0.00,SCT,SCT,0.00,0.0,WeatherDisplay:10.37,2013-05-17 21:00:00,
2013-05-17 17:10:00,70.8,42.5,29.98,NNE,16,2.0,8.0,36,0.00,SCT,SCT,0.00,0.0,WeatherDisplay:10.37,2013-05-17 21:10:00,
2013-05-17 17:16:00,71.3,42.3,29.98,North,356,5.0,11.0,35,0.00,SCT,SCT,0.00,0.0,WeatherDisplay:10.37,2013-05-17 21:16:00,
2013-05-17 17:26:00,70.3,40.6,29.99,North,8,2.0,10.0,34,0.00,SCT,SCT,0.00,0.0,WeatherDisplay:10.37,2013-05-17 21:26:00,
2013-05-17 17:31:00,69.9,41.0,29.99,North,355,1.0,5.0,35,0.00,SCT,SCT,0.00,0.0,WeatherDisplay:10.37,2013-05-17 21:31:00,
2013-05-17 17:41:00,69.7,40.8,29.99,North,6,2.0,9.0,35,0.00,SCT,SCT,0.00,0.0,WeatherDisplay:10.37,2013-05-17 21:41:00,
2013-05-17 17:46:00,69.1,40.3,29.99,North,8,2.0,9.0,35,0.00,SCT,SCT,0.00,0.0,WeatherDisplay:10.37,2013-05-17 21:46:00,
2013-05-17 17:56:00,68.5,40.5,30.00,ENE,66,3.0,9.0,36,0.00,SCT,SCT,0.00,0.0,WeatherDisplay:10.37,2013-05-17 21:56:00,
2013-05-17 18:01:00,68.4,40.4,30.00,NE,52,2.0,9.0,36,0.00,SCT,SCT,0.00,0.0,WeatherDisplay:10.37,2013-05-17 22:01:00,
2013-05-17 18:11:00,68.3,40.3,30.00,NE,47,3.0,9.0,36,0.00,SCT,SCT,0.00,0.0,WeatherDisplay:10.37,2013-05-17 22:11:00,
2013-05-17 18:16:00,68.0,40.7,30.00,NE,37,1.0,5.0,37,0.00,SCT,SCT,0.00,0.0,WeatherDisplay:10.37,2013-05-17 22:16:00,
2013-05-17 18:26:00,67.5,40.3,30.00,WNW,292,1.0,4.0,37,0.00,SCT,SCT,0.00,0.0,WeatherDisplay:10.37,2013-05-17 22:26:00,
2013-05-17 18:31:00,67.5,40.3,30.01,SW,227,1.0,5.0,37,0.00,SCT,SCT,0.00,0.0,WeatherDisplay:10.37,2013-05-17 22:31:00,
2013-05-17 18:40:00,67.0,40.6,30.01,NW,324,2.0,5.0,38,0.00,SCT,SCT,0.00,0.0,WeatherDisplay:10.37,2013-05-17 22:40:00,
2013-05-17 18:46:00,66.7,40.3,30.02,NNW,336,2.0,8.0,38,0.00,SCT,SCT,0.00,0.0,WeatherDisplay:10.37,2013-05-17 22:46:00,
2013-05-17 18:56:00,66.4,39.3,30.02,West,281,1.0,5.0,37,0.00,SCT,SCT,0.00,0.0,WeatherDisplay:10.37,2013-05-17 22:56:00,
2013-05-17 19:02:00,66.2,38.4,30.01,WSW,248,1.0,3.0,36,0.00,SCT,SCT,0.00,0.0,WeatherDisplay:10.37,2013-05-17 23:02:00,
2013-05-17 19:11:00,66.1,38.4,30.02,NNW,343,1.0,3.0,36,0.00,SCT,SCT,0.00,0.0,WeatherDisplay:10.37,2013-05-17 23:11:00,
2013-05-17 19:16:00,65.9,38.9,30.02,NNW,342,1.0,3.0,37,0.00,SCT,SCT,0.00,0.0,WeatherDisplay:10.37,2013-05-17 23:16:00,
2013-05-17 19:26:00,65.4,39.1,30.03,North,358,1.0,4.0,38,0.00,SCT,SCT,0.00,0.0,WeatherDisplay:10.37,2013-05-17 23:26:00,
2013-05-17 19:31:00,65.1,38.9,30.03,North,354,1.0,6.0,38,0.00,SCT,SCT,0.00,0.0,WeatherDisplay:10.37,2013-05-17 23:31:00,
2013-05-17 19:41:00,64.8,38.5,30.03,NE,44,0.0,6.0,38,0.00,SCT,SCT,0.00,0.0,WeatherDisplay:10.37,2013-05-17 23:41:00,
2013-05-17 19:46:00,64.4,38.9,30.04,NE,48,0.0,2.0,39,0.00,SCT,SCT,0.00,0.0,WeatherDisplay:10.37,2013-05-17 23:46:00,
2013-05-17 19:56:00,63.4,39.3,30.04,NW,318,0.0,2.0,41,0.00,SCT,SCT,0.00,0.0,WeatherDisplay:10.37,2013-05-17 23:56:00,
2013-05-17 20:12:00,62.4,39.6,30.05,NW,315,1.0,2.0,43,0.00,SCT,SCT,0.00,0.0,WeatherDisplay:10.37,2013-05-18 00:12:00,
2013-05-17 20:17:00,61.2,39.7,30.05,NW,315,1.0,2.0,45,0.00,SCT,SCT,0.00,0.0,WeatherDisplay:10.37,2013-05-18 00:17:00,
2013-05-17 20:32:00,59.7,38.8,30.06,NW,315,0.0,2.0,46,0.00,SCT,SCT,0.00,0.0,WeatherDisplay:10.37,2013-05-18 00:32:00,
2013-05-17 20:46:00,58.4,39.3,30.07,NW,315,0.0,1.0,49,0.00,SCT,SCT,0.00,0.0,WeatherDisplay:10.37,2013-05-18 00:46:00,
2013-05-17 20:56:00,57.6,39.0,30.07,NW,315,0.0,2.0,50,0.00,SCT,SCT,0.00,0.0,WeatherDisplay:10.37,2013-05-18 00:56:00,
2013-05-17 21:02:00,57.4,38.9,30.07,NW,315,0.0,1.0,50,0.00,SCT,SCT,0.00,0.0,WeatherDisplay:10.37,2013-05-18 01:02:00,
2013-05-17 21:11:00,56.4,39.0,30.08,NW,315,0.0,1.0,52,0.00,CLR,SCT,0.00,0.0,WeatherDisplay:10.37,2013-05-18 01:11:00,
2013-05-17 21:21:00,55.2,38.9,30.09,NW,315,0.0,2.0,54,0.00,CLR,SCT,0.00,0.0,WeatherDisplay:10.37,2013-05-18 01:21:00,
2013-05-17 21:31:00,54.6,39.2,30.09,NW,315,0.0,1.0,56,0.00,CLR,SCT,0.00,0.0,WeatherDisplay:10.37,2013-05-18 01:31:00,
2013-05-17 21:41:00,54.0,39.5,30.09,NW,315,0.0,1.0,58,0.00,CLR,SCT,0.00,0.0,WeatherDisplay:10.37,2013-05-18 01:41:00,
2013-05-17 21:46:00,53.5,39.5,30.09,NW,315,0.0,2.0,59,0.00,CLR,SCT,0.00,0.0,WeatherDisplay:10.37,2013-05-18 01:46:00,
2013-05-17 21:56:00,53.2,41.0,30.10,WNW,293,0.0,1.0,63,0.00,CLR,SCT,0.00,0.0,WeatherDisplay:10.37,2013-05-18 01:56:00,
2013-05-17 22:02:00,53.1,40.8,30.11,West,275,0.0,1.0,63,0.00,CLR,SCT,0.00,0.0,WeatherDisplay:10.37,2013-05-18 02:02:00,
2013-05-17 22:11:00,52.7,40.5,30.11,West,270,0.0,0.0,63,0.00,CLR,SCT,0.00,0.0,WeatherDisplay:10.37,2013-05-18 02:11:00,
2013-05-17 22:21:00,51.8,40.8,30.11,West,270,0.0,2.0,66,0.00,CLR,SCT,0.00,0.0,WeatherDisplay:10.37,2013-05-18 02:21:00,
2013-05-17 22:26:00,51.8,41.2,30.11,West,270,0.0,1.0,67,0.00,CLR,SCT,0.00,0.0,WeatherDisplay:10.37,2013-05-18 02:26:00,
2013-05-17 22:36:00,51.2,41.8,30.11,West,270,0.0,2.0,70,0.00,CLR,SCT,0.00,0.0,WeatherDisplay:10.37,2013-05-18 02:36:00,
2013-05-17 22:46:00,50.7,40.9,30.11,West,270,0.0,1.0,69,0.00,CLR,SCT,0.00,0.0,WeatherDisplay:10.37,2013-05-18 02:46:00,
2013-05-17 23:02:00,50.2,41.1,30.11,West,270,0.0,0.0,71,0.00,CLR,SCT,0.00,0.0,WeatherDisplay:10.37,2013-05-18 03:02:00,
2013-05-17 23:11:00,49.8,41.1,30.11,West,270,0.0,0.0,72,0.00,CLR,SCT,0.00,0.0,WeatherDisplay:10.37,2013-05-18 03:11:00,
2013-05-17 23:21:00,49.2,40.9,30.12,West,270,0.0,0.0,73,0.00,CLR,SCT,0.00,0.0,WeatherDisplay:10.37,2013-05-18 03:21:00,
2013-05-17 23:26:00,48.9,41.3,30.12,West,270,0.0,0.0,75,0.00,CLR,SCT,0.00,0.0,WeatherDisplay:10.37,2013-05-18 03:26:00,
2013-05-17 23:31:00,48.9,42.0,30.12,West,270,0.0,0.0,77,0.00,CLR,SCT,0.00,0.0,WeatherDisplay:10.37,2013-05-18 03:31:00,
2013-05-17 23:41:00,49.1,43.8,30.13,West,270,0.0,2.0,82,0.00,CLR,SCT,0.00,0.0,WeatherDisplay:10.37,2013-05-18 03:41:00,
2013-05-17 23:56:00,48.6,43.0,30.13,ENE,71,0.0,2.0,81,0.00,CLR,SCT,0.00,0.0,WeatherDisplay:10.37,2013-05-18 03:56:00,